Time,TemperatureF,DewpointF,PressureIn,WindDirection,WindDirectionDegrees,WindSpeedMPH,WindSpeedGustMPH,Humidity,HourlyPrecipIn,Conditions,Clouds,dailyrainin,SolarRadiationWatts/m^2,SoftwareType,DateUTC
2013-07-31 00:12:00,73.4,70.0,30.01,NNE,15,0.0,3.0,90,0.00,,,0.03,0,weatherlink.com 1.10,2013-07-31 05:12:00,
2013-07-31 00:27:00,73.3,70.0,30.02,NNE,15,0.0,3.0,90,0.00,,,0.03,0,weatherlink.com 1.10,2013-07-31 05:27:00,
2013-07-31 00:42:00,73.2,70.0,30.02,NNE,15,0.0,1.0,90,0.00,,,0.03,0,weatherlink.com 1.10,2013-07-31 05:42:00,
2013-07-31 00:57:00,73.0,70.0,30.01,NNE,15,0.0,3.0,90,0.00,,,0.03,0,weatherlink.com 1.10,2013-07-31 05:57:00,
2013-07-31 01:12:00,72.8,70.0,30.01,NNE,15,0.0,1.0,90,0.00,,,0.03,0,weatherlink.com 1.10,2013-07-31 06:12:00,
2013-07-31 01:27:00,72.6,70.0,30.01,NNE,15,0.0,1.0,90,0.00,,,0.03,0,weatherlink.com 1.10,2013-07-31 06:27:00,
2013-07-31 01:42:00,72.3,69.0,30.01,NNE,15,0.0,0.0,90,0.00,,,0.03,0,weatherlink.com 1.10,2013-07-31 06:42:00,
2013-07-31 01:57:00,72.0,69.0,30.00,NNE,15,0.0,0.0,90,0.00,,,0.03,0,weatherlink.com 1.10,2013-07-31 06:57:00,
2013-07-31 02:12:00,71.7,69.0,30.00,NNE,15,0.0,1.0,91,0.00,,,0.03,0,weatherlink.com 1.10,2013-07-31 07:12:00,
2013-07-31 02:27:00,71.4,69.0,30.00,NNE,15,0.0,1.0,91,0.00,,,0.03,0,weatherlink.com 1.10,2013-07-31 07:27:00,
2013-07-31 02:42:00,71.1,68.0,30.01,NNE,15,2.0,2.0,91,0.00,,,0.03,0,weatherlink.com 1.10,2013-07-31 07:42:00,
2013-07-31 02:57:00,70.9,69.0,30.01,NNE,15,0.0,2.0,92,0.00,,,0.03,0,weatherlink.com 1.10,2013-07-31 07:57:00,
2013-07-31 03:12:00,70.9,69.0,30.01,NNE,15,0.0,2.0,93,0.00,,,0.00,0,weatherlink.com 1.10,2013-07-31 08:12:00,
2013-07-31 03:27:00,70.9,69.0,30.00,NNE,15,0.0,4.0,93,0.00,,,0.00,0,weatherlink.com 1.10,2013-07-31 08:27:00,
2013-07-31 03:42:00,71.1,69.0,30.01,NNE,15,0.0,4.0,93,0.00,,,0.00,0,weatherlink.com 1.10,2013-07-31 08:42:00,
2013-07-31 03:57:00,71.3,69.0,30.01,NNE,15,4.0,5.0,93,0.00,,,0.00,0,weatherlink.com 1.10,2013-07-31 08:57:00,
2013-07-31 04:12:00,71.4,70.0,30.01,NNE,21,1.0,5.0,94,0.00,,,0.00,0,weatherlink.com 1.10,2013-07-31 09:12:00,
2013-07-31 04:27:00,71.4,70.0,30.01,NNE,21,0.0,1.0,94,0.00,,,0.00,0,weatherlink.com 1.10,2013-07-31 09:27:00,
2013-07-31 04:42:00,71.4,70.0,30.01,NNE,21,0.0,2.0,94,0.00,,,0.00,0,weatherlink.com 1.10,2013-07-31 09:42:00,
2013-07-31 04:57:00,71.5,70.0,30.01,NNE,21,0.0,1.0,94,0.00,,,0.00,0,weatherlink.com 1.10,2013-07-31 09:57:00,
2013-07-31 05:12:00,71.4,70.0,30.01,NNE,21,0.0,1.0,94,0.00,,,0.00,0,weatherlink.com 1.10,2013-07-31 10:12:00,
2013-07-31 05:27:00,71.3,70.0,30.01,NNE,21,0.0,3.0,94,0.00,,,0.00,0,weatherlink.com 1.10,2013-07-31 10:27:00,
2013-07-31 05:42:00,71.2,69.0,30.01,NNE,21,0.0,1.0,94,0.00,,,0.00,0,weatherlink.com 1.10,2013-07-31 10:42:00,
2013-07-31 05:57:00,71.0,69.0,30.02,NNE,21,0.0,1.0,94,0.00,,,0.00,0,weatherlink.com 1.10,2013-07-31 10:57:00,
2013-07-31 06:12:00,70.9,69.0,30.03,NNE,21,0.0,1.0,94,0.00,,,0.00,0,weatherlink.com 1.10,2013-07-31 11:12:00,
2013-07-31 06:28:00,70.8,69.0,30.03,NNE,21,1.0,2.0,94,0.00,,,0.00,0,weatherlink.com 1.10,2013-07-31 11:28:00,
2013-07-31 06:43:00,70.5,69.0,30.04,NNE,21,0.0,1.0,94,0.00,,,0.00,16,weatherlink.com 1.10,2013-07-31 11:43:00,
2013-07-31 06:58:00,70.4,69.0,30.04,NNE,21,0.0,0.0,94,0.00,,,0.00,33,weatherlink.com 1.10,2013-07-31 11:58:00,
2013-07-31 07:13:00,70.6,69.0,30.06,NNE,21,3.0,4.0,94,0.00,,,0.00,35,weatherlink.com 1.10,2013-07-31 12:13:00,
2013-07-31 07:28:00,70.8,69.0,30.06,NNE,21,0.0,4.0,94,0.00,,,0.00,56,weatherlink.com 1.10,2013-07-31 12:28:00,
2013-07-31 07:43:00,70.9,70.0,30.06,NNE,21,0.0,3.0,95,0.00,,,0.00,100,weatherlink.com 1.10,2013-07-31 12:43:00,
2013-07-31 07:58:00,71.0,70.0,30.07,NNE,21,0.0,4.0,95,0.00,,,0.00,69,weatherlink.com 1.10,2013-07-31 12:58:00,
2013-07-31 08:13:00,71.1,69.0,30.06,NNE,21,0.0,1.0,94,0.00,,,0.00,127,weatherlink.com 1.10,2013-07-31 13:13:00,
2013-07-31 08:28:00,71.5,70.0,30.05,NNE,21,0.0,1.0,95,0.00,,,0.00,376,weatherlink.com 1.10,2013-07-31 13:28:00,
2013-07-31 08:43:00,72.6,71.0,30.05,NNE,28,0.0,3.0,93,0.00,,,0.00,353,weatherlink.com 1.10,2013-07-31 13:43:00,
2013-07-31 08:58:00,74.4,71.0,30.06,NNE,28,0.0,3.0,89,0.00,,,0.00,188,weatherlink.com 1.10,2013-07-31 13:58:00,
2013-07-31 09:13:00,75.3,71.0,30.06,NNE,28,2.0,5.0,85,0.00,,,0.00,353,weatherlink.com 1.10,2013-07-31 14:13:00,
2013-07-31 09:28:00,76.5,71.0,30.06,NNE,28,0.0,3.0,83,0.00,,,0.00,214,weatherlink.com 1.10,2013-07-31 14:28:00,
2013-07-31 09:43:00,76.6,71.0,30.07,NNE,28,0.0,4.0,83,0.00,,,0.00,329,weatherlink.com 1.10,2013-07-31 14:43:00,
2013-07-31 09:58:00,77.7,70.0,30.07,NNE,27,0.0,5.0,78,0.00,,,0.00,295,weatherlink.com 1.10,2013-07-31 14:58:00,
2013-07-31 10:13:00,78.0,71.0,30.07,NNE,27,0.0,5.0,79,0.00,,,0.00,285,weatherlink.com 1.10,2013-07-31 15:13:00,
2013-07-31 10:28:00,77.5,70.0,30.07,NNE,28,1.0,5.0,77,0.00,,,0.00,163,weatherlink.com 1.10,2013-07-31 15:28:00,
2013-07-31 10:43:00,76.5,70.0,30.08,NNE,28,1.0,4.0,80,0.00,,,0.00,192,weatherlink.com 1.10,2013-07-31 15:43:00,
2013-07-31 10:58:00,77.5,69.0,30.07,NNE,32,3.0,9.0,74,0.00,,,0.00,276,weatherlink.com 1.10,2013-07-31 15:58:00,
2013-07-31 11:13:00,78.2,70.0,30.07,NNE,31,0.0,4.0,77,0.00,,,0.00,796,weatherlink.com 1.10,2013-07-31 16:13:00,
2013-07-31 11:28:00,80.2,69.0,30.07,NNE,13,1.0,7.0,68,0.00,,,0.00,835,weatherlink.com 1.10,2013-07-31 16:28:00,
2013-07-31 11:43:00,81.4,69.0,30.07,NNE,28,1.0,7.0,65,0.00,,,0.00,251,weatherlink.com 1.10,2013-07-31 16:43:00,
2013-07-31 11:58:00,80.2,67.0,30.07,NNE,32,1.0,6.0,64,0.00,,,0.00,206,weatherlink.com 1.10,2013-07-31 16:58:00,
2013-07-31 12:14:00,81.9,70.0,30.07,NNE,21,0.0,9.0,67,0.00,,,0.00,1060,weatherlink.com 1.10,2013-07-31 17:14:00,
2013-07-31 12:29:00,80.4,69.0,30.06,NNE,16,0.0,5.0,68,0.00,,,0.00,877,weatherlink.com 1.10,2013-07-31 17:29:00,
2013-07-31 12:44:00,81.6,67.0,30.05,NNE,29,1.0,5.0,62,0.00,,,0.00,912,weatherlink.com 1.10,2013-07-31 17:44:00,
2013-07-31 12:59:00,82.5,70.0,30.05,North,10,1.0,6.0,66,0.00,,,0.00,916,weatherlink.com 1.10,2013-07-31 17:59:00,
2013-07-31 13:14:00,82.1,68.0,30.05,North,5,4.0,6.0,62,0.00,,,0.00,288,weatherlink.com 1.10,2013-07-31 18:14:00,
2013-07-31 13:29:00,82.3,68.0,30.05,North,5,0.0,6.0,62,0.00,,,0.00,285,weatherlink.com 1.10,2013-07-31 18:29:00,
2013-07-31 13:44:00,82.3,68.0,30.05,NNE,19,6.0,8.0,63,0.00,,,0.00,977,weatherlink.com 1.10,2013-07-31 18:44:00,
2013-07-31 13:59:00,82.4,68.0,30.05,NNE,25,2.0,7.0,62,0.00,,,0.00,949,weatherlink.com 1.10,2013-07-31 18:59:00,
2013-07-31 14:14:00,83.6,69.0,30.04,NNE,30,1.0,6.0,61,0.00,,,0.00,925,weatherlink.com 1.10,2013-07-31 19:14:00,
2013-07-31 14:29:00,83.7,68.0,30.04,North,5,2.0,4.0,59,0.00,,,0.00,877,weatherlink.com 1.10,2013-07-31 19:29:00,
2013-07-31 14:44:00,82.9,68.0,30.04,North,5,0.0,4.0,61,0.00,,,0.00,835,weatherlink.com 1.10,2013-07-31 19:44:00,
2013-07-31 14:59:00,83.2,68.0,30.03,NE,39,1.0,4.0,60,0.00,,,0.00,817,weatherlink.com 1.10,2013-07-31 19:59:00,
2013-07-31 15:14:00,83.0,67.0,30.04,NE,38,0.0,7.0,59,0.00,,,0.00,796,weatherlink.com 1.10,2013-07-31 20:14:00,
2013-07-31 15:29:00,83.2,68.0,30.03,NE,38,1.0,4.0,61,0.00,,,0.00,784,weatherlink.com 1.10,2013-07-31 20:29:00,
2013-07-31 15:44:00,83.5,67.0,30.02,NE,38,2.0,4.0,58,0.00,,,0.00,759,weatherlink.com 1.10,2013-07-31 20:44:00,
2013-07-31 15:59:00,83.6,68.0,30.03,NE,38,0.0,6.0,59,0.00,,,0.00,729,weatherlink.com 1.10,2013-07-31 20:59:00,
2013-07-31 16:14:00,84.3,68.0,30.03,NE,38,1.0,3.0,59,0.00,,,0.00,700,weatherlink.com 1.10,2013-07-31 21:14:00,
2013-07-31 16:29:00,84.3,68.0,30.02,NE,38,2.0,5.0,59,0.00,,,0.00,664,weatherlink.com 1.10,2013-07-31 21:29:00,
2013-07-31 16:44:00,85.1,68.0,30.02,NE,40,4.0,5.0,56,0.00,,,0.00,631,weatherlink.com 1.10,2013-07-31 21:44:00,
2013-07-31 16:59:00,84.5,68.0,30.00,NE,49,1.0,7.0,57,0.00,,,0.00,592,weatherlink.com 1.10,2013-07-31 21:59:00,
2013-07-31 17:14:00,84.8,68.0,30.00,NE,49,1.0,3.0,57,0.00,,,0.00,552,weatherlink.com 1.10,2013-07-31 22:14:00,
2013-07-31 17:29:00,84.1,68.0,30.00,NE,47,0.0,4.0,58,0.00,,,0.00,557,weatherlink.com 1.10,2013-07-31 22:29:00,
2013-07-31 17:44:00,83.6,68.0,30.00,NE,47,0.0,3.0,60,0.00,,,0.00,323,weatherlink.com 1.10,2013-07-31 22:44:00,
2013-07-31 17:59:00,83.5,68.0,29.99,NE,47,1.0,3.0,60,0.00,,,0.00,413,weatherlink.com 1.10,2013-07-31 22:59:00,
2013-07-31 18:14:00,83.5,68.0,29.99,NE,47,1.0,3.0,60,0.00,,,0.00,380,weatherlink.com 1.10,2013-07-31 23:14:00,
2013-07-31 18:29:00,83.6,68.0,29.99,NE,47,0.0,4.0,59,0.00,,,0.00,332,weatherlink.com 1.10,2013-07-31 23:29:00,
2013-07-31 18:45:00,83.7,68.0,29.99,NE,47,0.0,3.0,60,0.00,,,0.00,279,weatherlink.com 1.10,2013-07-31 23:45:00,
2013-07-31 18:59:00,83.0,68.0,29.99,NE,47,0.0,4.0,60,0.00,,,0.00,234,weatherlink.com 1.10,2013-07-31 23:59:00,
2013-07-31 19:14:00,82.5,68.0,29.99,NE,47,0.0,2.0,62,0.00,,,0.00,185,weatherlink.com 1.10,2013-08-01 00:14:00,
2013-07-31 19:29:00,82.0,68.0,29.99,NE,47,1.0,1.0,62,0.00,,,0.00,135,weatherlink.com 1.10,2013-08-01 00:29:00,
2013-07-31 19:44:00,82.0,68.0,30.00,NE,47,0.0,2.0,63,0.00,,,0.00,88,weatherlink.com 1.10,2013-08-01 00:44:00,
2013-07-31 19:59:00,81.5,68.0,30.00,NE,47,0.0,2.0,64,0.00,,,0.00,40,weatherlink.com 1.10,2013-08-01 00:59:00,
2013-07-31 20:14:00,80.8,68.0,30.00,NE,47,0.0,2.0,66,0.00,,,0.00,14,weatherlink.com 1.10,2013-08-01 01:14:00,
2013-07-31 20:29:00,80.1,69.0,30.00,NE,47,0.0,2.0,68,0.00,,,0.00,0,weatherlink.com 1.10,2013-08-01 01:29:00,
2013-07-31 20:44:00,79.2,68.0,30.00,NE,47,0.0,3.0,69,0.00,,,0.00,0,weatherlink.com 1.10,2013-08-01 01:44:00,
2013-07-31 20:59:00,78.3,68.0,30.00,NE,47,0.0,1.0,71,0.00,,,0.00,0,weatherlink.com 1.10,2013-08-01 01:59:00,
2013-07-31 21:14:00,77.6,68.0,30.01,NE,47,0.0,0.0,72,0.00,,,0.00,0,weatherlink.com 1.10,2013-08-01 02:14:00,
2013-07-31 21:29:00,76.9,68.0,30.02,NE,47,0.0,0.0,73,0.00,,,0.00,0,weatherlink.com 1.10,2013-08-01 02:29:00,
2013-07-31 21:44:00,76.3,67.0,30.02,NE,47,0.0,0.0,74,0.00,,,0.00,0,weatherlink.com 1.10,2013-08-01 02:44:00,
2013-07-31 21:59:00,75.7,67.0,30.03,NE,47,0.0,0.0,75,0.00,,,0.00,0,weatherlink.com 1.10,2013-08-01 02:59:00,
2013-07-31 22:14:00,75.0,67.0,30.03,NE,47,0.0,0.0,75,0.00,,,0.00,0,weatherlink.com 1.10,2013-08-01 03:14:00,
2013-07-31 22:29:00,74.4,67.0,30.02,NE,47,0.0,0.0,77,0.00,,,0.00,0,weatherlink.com 1.10,2013-08-01 03:29:00,
2013-07-31 22:44:00,74.0,67.0,30.02,NE,47,0.0,0.0,78,0.00,,,0.00,0,weatherlink.com 1.10,2013-08-01 03:44:00,
2013-07-31 22:59:00,73.6,67.0,30.02,NE,47,0.0,0.0,79,0.00,,,0.00,0,weatherlink.com 1.10,2013-08-01 03:59:00,
2013-07-31 23:14:00,73.1,67.0,30.03,NE,47,0.0,0.0,80,0.00,,,0.00,0,weatherlink.com 1.10,2013-08-01 04:14:00,
2013-07-31 23:29:00,72.6,66.0,30.03,NE,47,0.0,0.0,80,0.00,,,0.00,0,weatherlink.com 1.10,2013-08-01 04:29:00,
2013-07-31 23:44:00,72.0,66.0,30.04,NE,47,0.0,0.0,81,0.00,,,0.00,0,weatherlink.com 1.10,2013-08-01 04:44:00,
2013-07-31 23:59:00,71.6,66.0,30.03,NE,47,0.0,0.0,83,0.00,,,0.00,0,weatherlink.com 1.10,2013-08-01 04:59:00,